Location: Unspecified
(0.0000°N, 0.0000°E)
Time: 20:15:42
(UTC+00:00)

Vanguard 1 - Pass Details

Date: 20 June 2025
Orbit: 649 x 3822 km, 34.2° (Epoch: 12 July)

Event Time Altitude Azimuth Distance (km) Brightness Sun altitude
Exits shadow 03:38:32 16° 139° (SE) 2,038 11.8 -32.4°
Maximum altitude 03:38:36 16° 138° (SE) 2,043 11.8 -32.4°
Drops below altitude 10° 03:42:14 10° 102° (ESE) 2,766 12.9 -31.6°
Sets 03:46:48 0° 81° (E) 4,250 14.4 -30.6°
